Regional Weather Roundup
Issued by NWS

Home | Current Version | Previous Version | Text Only | Print | Product List | Glossary Off
Versions: 1 2 3 4 5 6 7 8 9 10 11 12 13 14 15 16 17 18 19 20 21 22 23 24 25 26 27 28 29 30 31 32 33 34 35 36 37 38 39 40 41 42 43 44 45 46 47 48 49 50

000
ASUS45 KBOU 041507
RWRCO

WEATHER ROUNDUP FOR COLORADO
NATIONAL WEATHER SERVICE DENVER/BOULDER CO
900 AM MDT WED MAY 04 2016

NOTE: "FAIR" INDICATES FEW OR NO CLOUDS BELOW 12000 FEET WITH NO
SIGNIFICANT WEATHER AND/OR OBSTRUCTIONS TO VISIBILITY.

COZ001>005-013-030-031-041600-
...NORTHWEST COLORADO...

CITY           SKY/WX    TMP DP  RH WIND       PRES   REMARKS
CRAIG          FAIR      53  33  46 E12       30.31F
HAYDEN         FAIR      50  30  46 SE9       30.32F
MEEKER         FAIR      51  29  42 CALM      30.32S
MOUNT WERNER   NOT AVBL
STEAMBOAT SPGS FAIR      45  31  57 CALM      30.34F
WALDEN         FAIR      41  27  56 CALM      30.41F
$$

COZ006>008-011-041600-
...WEST CENTRAL VALLEYS...

CITY           SKY/WX    TMP DP  RH WIND       PRES   REMARKS
GRAND JUNCTION FAIR      57  32  38 SE14      30.26S
MONTROSE       FAIR      56  31  38 CALM      30.32F
EAGLE          SUNNY     45  27  49 CALM      30.40F
RIFLE          FAIR      51  33  50 N3        30.31F
DELTA          NOT AVBL
NUCLA          NOT AVBL
$$

COZ017>023-064>068-041600-
...SOUTHWEST COLORADO...

CITY           SKY/WX    TMP DP  RH WIND       PRES   REMARKS
DURANGO        FAIR      52  37  56 CALM      30.37S
CORTEZ         FAIR      55  34  45 CALM      30.32S
PAGOSA SPRINGS FAIR      51  33  49 CALM      30.42F
TELLURIDE      FAIR      51  26  37 CALM      30.46S
WOLF CREEK PAS FAIR      36  21  55 SW8       30.60R
$$

COZ009-010-012-014-032>034-037-058>063-041600-
...CENTRAL COLORADO...

CITY           SKY/WX    TMP DP  RH WIND       PRES   REMARKS
ASPEN          FAIR      51  23  33 NE3       30.37S
BUENA VISTA    FAIR      48  20  33 N5        30.40F
COPPER MTN     NOT AVBL
BERTHOUD PASS  FAIR      32  23  69 N20G26    30.55S WCI  20
COTTONWOOD PAS FAIR      48  18  29 CALM      30.46S
GUNNISON       FAIR      41  25  52 CALM      30.46S
KREMMLING      FAIR      41  27  56 CALM      30.42F
LEADVILLE      FAIR      40  16  37 CALM      30.45F
MONARCH PASS   FAIR      34  18  51 W10       30.66R WCI  26
SALIDA         FAIR      45  25  45 N5        30.47F
SUNLIGHT       FAIR      45  21  39 CALM      30.53S
WILKERSON PASS FAIR      41  12  30 W8        30.54R
$$

COZ069>075-041600-
...SAN LUIS VALLEY/SANGRE DE CRISTO MOUNTAINS...

CITY           SKY/WX    TMP DP  RH WIND       PRES   REMARKS
ALAMOSA        FAIR      50  26  39 N6        30.41S
LA VETA PASS   FAIR      43  25  49 SW6       30.48S
SAGUACHE       FAIR      46  23  39 CALM      30.43S
$$

COZ035-036-038>040-041600-
...NORTHERN COLORADO FRONT RANGE...

CITY           SKY/WX    TMP DP  RH WIND       PRES   REMARKS
DENVER INTL AP FAIR      59  31  34 W12       30.27R
DMNS CITY PARK   N/A     59  29  31 E9        30.26F
AURORA         FAIR      57  31  37 SW8       30.28S
FRONT RANGE AP SUNNY     59  32  36 SW7       30.28S
ERIE MUNI ARPT FAIR      57  37  47 CALM      30.26S
BOULDER MUN AP FAIR      55  34  44 CALM      30.26S
CENTENNIAL     FAIR      58  30  34 CALM      30.28S
BROOMFIELD     SUNNY     57  34  41 CALM      30.28S
FORT COLLINS   FAIR      55  39  54 CALM      30.27S
LONGMONT       FAIR      60  35  38 CALM      30.27S HAZE
$$

COZ041-046-047-076>085-087-088-041600-
...PIKES PEAK/PALMER DIVIDE AND SOUTHERN FOOTHILLS...

CITY           SKY/WX    TMP DP  RH WIND       PRES   REMARKS
COLO. SPRINGS  FAIR      59  25  27 VRB5      30.31S
A. F. ACADEMY  FAIR      57  25  28 SW1       30.31S
SCHRIEVER AFB  NOT AVBL
ELLICOTT       FAIR     N/A N/A N/A W7        30.29F
FALCON         NOT AVBL
FORT CARSON    FAIR      58  27  30 VRB1      30.29S
LIMON          FAIR      59  38  45 W5        30.27F
MONUMENT HILL  FAIR      55  30  38 S8        30.34S
TRINIDAD       FAIR      57  31  37 SW17      30.30F
$$

COZ042>045-048>051-090-091-041600-
...NORTHEAST COLORADO...

CITY           SKY/WX    TMP DP  RH WIND       PRES   REMARKS
GREELEY ARPT   FAIR      55  39  54 CALM      30.26S
AKRON          FAIR      56  40  55 W12       30.24R
BURLINGTON     FAIR      62  40  44 NW9       30.22F
WRAY           NOT AVBL
STERLING       FAIR      55  45  67 S3        30.21S
HOLYOKE        NOT AVBL
FORT MORGAN    FAIR      57  39  52 W9        30.25S
$$

COZ086-089-092>099-041600-
...SOUTHEAST COLORADO...

CITY           SKY/WX    TMP DP  RH WIND       PRES   REMARKS
PUEBLO         FAIR      60  33  36 NW9       30.26F
LA JUNTA       FAIR      62  36  37 W10       30.24S
LAMAR          FAIR      60  40  47 W10       30.21F
SPRINGFIELD      N/A     65  39  38 NW13      30.23S
$$



USA.gov is the U.S. government's official web portal to all federal, state and local government web resources and services.